User: anonymous   Login
Location: *
(37.5724°S, 58.0067°E)
Time: 00:06:52
(UTC+00:00)
Language:

CZ-4 R/B - Orbit

View from above orbital plane
View from above orbital plane
View from above satellite
View from above satellite

Ground track
Ground track

The orbit data is extracted from the following two-line orbital elements,

1 29507U 06046C   20332.32684885 +.00000515 +00000-0 +44784-4 0  9995
2 29507 097.7205 353.5216 0047996 340.4493 019.4888 15.00576574769798
Epoch (UTC): 27 November 2020 07:50:39
Eccentricity: 0.0047996
inclination: 97.7205°
perigee height: 532 km
apogee height: 598 km
right ascension of ascending node: 353.5216°
argument of perigee: 340.4493°
revolutions per day: 15.00576574
mean anomaly at epoch: 19.4888°
orbit number at epoch: 76979

The dashed part of the orbit path shows where the satellite is in the earth's shadow,  

DLR